Preview of NWS' New Version of Forecast
This preview is not operational and should not be used for support decisions.
Latest weather observations around

Lawrence, Lawrence Municipal Airport (KLWC)

Using English Units (Switch to International System of Units)
Date/ Time (CDT) Wind (mph) Vis. (mi) Weather Sky Cond. Temp (°F) Rel. Humidity Wind Chill (°F) Heat Index (°F) Pressure Precip. (in)
Air Dwpt 6 hour Altimeter (inHg) Sea level (inHg) 1 hr 3 hr 6 hr
Max Min
Aug 20 10:52 3 10 Clear CLR 90 73     58%   98 29.95 29.92      
Aug 20 09:52 WSW 9 10 Clear CLR 89 73     59%   97 29.96 29.92      
Aug 20 08:52 SSW 7 10 Clear CLR 84 73     70%   90 29.96 29.93      
Aug 20 07:52 E 3 10 Clear CLR 81 73     77%   86 29.97 29.94      
Aug 20 06:52 Calm 10 Clear CLR 80 73     79%   84 29.96 29.92      
Aug 20 05:52 SSW 8 10 Clear CLR 82 73     74%   87 29.92 29.88      
Aug 20 04:52 SSW 9 10 Clear CLR 82 74     77%   88 29.92 29.88      
Aug 20 03:52 S 8 10 Clear CLR 82 74     77%   88 29.94 29.91      
Aug 20 02:52 S 6 10 Clear CLR 82 75     79%   89 29.96 29.92      
Aug 20 01:52 SSE 8 10 Clear CLR 80 75     85%   85 29.96 29.93      
Aug 20 00:52 SE 6 10 Clear   79 75     88%   83 29.96 29.93      
Aug 19 23:52 ESE 5 10 Clear CLR 80 76     87%   85 29.96 29.93      
Aug 19 22:52 ESE 6 10 Clear CLR 82 77     85%   90 29.97 29.93      
Aug 19 21:52 ESE 7 9 Clear CLR 83 78     85%   93 29.95 29.92      
Aug 19 20:52 E 5 8 Clear CLR 84 78     82%   95 29.93 29.9      
Aug 19 19:52 SE 7 10 Clear CLR 88 79     75%   103 29.9 29.88      
Aug 19 18:52 SE 7 10 Clear CLR 93 78     62%   109 29.9 29.87      
Aug 19 17:52 SE 10 10 Clear CLR 95 78     58%   112 29.91 29.88      
Aug 19 16:52 SSE 9 10 Clear CLR 96 76     53%   110 29.92 29.89      
Aug 19 15:52 SSE 10 10 Clear CLR 96 77     54%   111 29.94 29.9      
Aug 19 14:52 SSE 8 10 Clear CLR 95 77     56%   110 29.95 29.92      
Aug 19 13:52 SE 8 10 Clear CLR 94 76     56%   107 29.96 29.93      
Aug 19 12:52 SSE 6 10 Clear CLR 93 75     56%   105 29.98 29.95      
Aug 19 11:52 SE 8 10 Clear CLR 90 76     64%   102 29.99 29.96      
Aug 19 10:52 SE 8 10 Clear CLR 87 75     68%   97 30 29.97      
Aug 19 09:52 E 8 10 Clear CLR 83 73     72%   89 30 29.97      
Aug 19 08:52 E 6 10 Mostly Clear FEW065 79 71     77%   82 30 29.97      
Aug 19 07:52 Calm 10 Mostly Clear FEW070 75 70     84%   76 29.99 29.96      
Aug 19 06:52 Calm 10 Mostly Clear FEW060 73 69     87%   74 29.98 29.95      
Aug 19 05:52 Calm 9 Partly Cloudy SCT065 72 69     91%   73 29.96 29.93      
Aug 19 04:52 Calm 10 Clear CLR 72 68     87%   73 29.95 29.92      
Aug 19 03:52 Calm 10 Clear CLR 73 68     84%   74 29.95 29.92      
Aug 19 02:52 Calm 10 Clear CLR 74 69     85%   75 29.94 29.91      
Aug 19 01:52 NE 5 10 Clear CLR 75 70     84%   76 29.93 29.91      
Aug 19 00:52 NNE 5 10 Mostly Cloudy BKN049 76 72     88%   77 29.93 29.9      
Aug 18 23:52 ESE 3 10 Cloudy OVC049 76 73     91%   77 29.92 29.89      
Aug 18 22:52 Calm 10 Mostly Cloudy BKN049 75 72     90%   76 29.92 29.89      
Aug 18 21:52 Calm 10 Mostly Cloudy BKN049 76 72     88%   77 29.9 29.88      
Aug 18 20:52 E 5 10 Clear CLR 77 73     88%   79 29.88 29.86      
Aug 18 19:52 Calm 10 Clear CLR 84 74     72%   91 29.86 29.84      
Aug 18 18:52 Calm 10 Clear CLR 89 70     53%   94 29.85 29.83      
Aug 18 17:52 3 10 Clear CLR 90 67     47%   93 29.86 29.83      
Aug 18 16:52 ESE 5 10 Clear CLR 91 69     49%   96 29.85 29.82      
Aug 18 15:52 WNW 5 10 Clear CLR 92 68     46%   96 29.85 29.82      
Aug 18 14:52 WNW 3 10 Clear CLR 90 67     47%   93 29.87 29.84      
Aug 18 13:52 WNW 3 10 Clear CLR 88 69     54%   92 29.88 29.85      
Aug 18 12:52 WSW 5 10 Clear CLR 85 69     59%   89 29.9 29.87      
Aug 18 11:52 ENE 6 10 Clear CLR 83 69     63%   87 29.89 29.86      
Aug 18 10:52 E 7 10 Clear CLR 77 68     74%   78 29.87 29.84      
Aug 18 09:52 ENE 5 10 Clear CLR 74 68     82%   75 29.81 29.79      
Aug 18 08:52 SSW 9 10 Partly Cloudy FEW075 FEW090 SCT110 74 66     76%   75 29.8 29.77      
Aug 18 07:52 SSW 15 10 Clear CLR 74 66     76%   75 29.79 29.76      
Aug 18 06:52 WSW 9 10 Clear CLR 74 65     74%   74 29.79 29.77     0
Aug 18 05:52 SSE 20 10 Clear and Windy CLR 75 65     71%   76 29.74 29.71 0    
Aug 18 04:52   10 Light Rain SCT110 73 67     81%   74 29.77   0    
Aug 18 04:02 SSE 13 10 Light Rain BKN110 75 69     82%   76 29.83   0    
Aug 18 03:52 5 8 Light Rain BKN100 77 69     77%   78 29.84 29.81 0 0  
Aug 18 03:47 SSE 5 8 Light Rain BKN100 79 70     74%   80 29.84   0    
Aug 18 03:38 ESE 6 8 Light Rain SCT110 78 72     82%   79 29.84   0    
Aug 18 02:59 ENE 5 10 Light Rain FEW032 SCT060 BKN100 78 73     85%   80 29.8   0    
Aug 18 02:52 E 5 10 Thunderstorms and Rain SCT032 BKN060 BKN110 79 73     82%   82 29.78 29.75 0    
Aug 18 02:17 S 11 10 Thunderstorms FEW055 BKN080 BKN100 78 72     82%   79 29.72   0    
Aug 18 02:08 SSE 10 10 Partly Cloudy SCT080 SCT100 79 73     82%   82 29.7   0    
Aug 18 01:52 SE 9 10 Thunderstorms and Rain FEW050 BKN075 OVC110 80 73     79%   84 29.71 29.67 0    
Aug 18 00:52 SSE 6 10 Thunderstorms FEW050 FEW070 SCT100 78 74     87%   80 29.73 29.7      
Aug 18 00:47 SSE 6 10 Thunderstorms FEW100 79 73     84%   82 29.74        
Aug 17 23:52 SE 3 10 Cloudy OVC100 77 73     88%   79 29.77 29.75      
Aug 17 22:52 ESE 5 10 Clear CLR 76 72     88%   77 29.77 29.75      
Aug 17 21:52 ESE 7 10 Clear CLR 76 72     88%   77 29.77 29.75      
Aug 17 20:52 ESE 6 10 Clear CLR 79 73     82%   82 29.77 29.75      
Aug 17 19:52 SSE 8 10 Clear CLR 82 74     77%   88 29.76 29.74      
Aug 17 18:52 SSE 9 10 Clear CLR 87 73     63%   95 29.76 29.74      
Aug 17 17:52 SE 9 10 Clear CLR 90 74     59%   99 29.77 29.74      
Aug 17 16:52 S 8 10 Clear CLR 90 73     58%   98 29.77 29.75      
Aug 17 15:52 SSE 9 10 Clear CLR 90 73     58%   98 29.78 29.75      
Aug 17 14:52 S 8 10 Clear CLR 88 71     57%   94 29.8 29.77      
Aug 17 13:52 S 10 10 Clear CLR 87 71     59%   93 29.82 29.8      
Aug 17 12:52 S 8 10 Clear CLR 84 71     65%   89 29.83 29.8      
Aug 17 11:52 SSE 14 10 Mostly Clear FEW019 81 70     69%   84 29.86 29.84      
Aug 17 09:52 SE 10 10 Clear CLR 74 66     76%   75 29.87 29.85      
May 15 09:52 WNW 9 10 Mostly Cloudy BKN070 75 66     74%   76 29.99 29.97      
May 15 04:52 WNW 8 10 Cloudy BKN046 OVC055 67 63     87%     29.91 29.89      
May 14 14:52 3 10 Clear CLR 85 66     53%   87 29.84 29.81      
May 14 11:52 W 10 10 Clear CLR 79 68     69%   80 29.93 29.91      
May 14 10:52 WSW 8 10 Clear CLR 80 68     67%   83 29.92 29.89      
May 14 08:52 SW 13 9 Clear CLR 76 67     74%   77 29.92 29.89      
May 13 18:52   10 Cloudy FEW050 OVC060 88 69     54%   92 29.85 29.83      
May 12 06:12 SE 9 10 Partly Cloudy FEW100 SCT120 72 64     76%   72 29.82   0    
May 11 22:52 SSE 10 10 Clear CLR 77 63     62%   77 29.8 29.77      
May 11 20:52 SSE 10 10 Clear CLR 79 64     60%   79 29.73 29.71      
May 11 18:52 S 13 10 Cloudy OVC065 83 64     53%   84 29.7 29.67      
May 11 10:52   10 Clear CLR 79 63     58%   79 29.74 29.72      
Jun 12 07:52 SE 11 10 Clear CLR 75 66     74%   76 29.91 29.88      
Jun 11 22:52 SSE 14 10 Clear CLR 80 68     67%   83 29.86 29.83      
Jun 11 01:52 SSE 10 10 Clear CLR 76 67     74%   77 29.8 29.77      
Jun 09 20:52 SSE 9 10 Clear CLR 78 61     56%   78 29.79 29.77      
Jun 08 15:52 5 10 Clear CLR 81 50     34%   80 29.96 29.94      
Jun 08 07:52 Calm 10 Clear   61 58     90%     30.07 30.05      
Jun 05 22:52 NNE 6 10 Clear CLR 73 57     57%   73 29.89 29.86      
Jun 05 14:52 5 10 Clear CLR 91 59     34%   90 29.83 29.8